Starlink 32924

operational
NORAD ID: 63092 Int'l Des: 2025-037 Owner: SPXS Country: US Constellation: starlink
LEOCIRCULAR

Starlink 32924について

説明を読み込み中...

リアルタイム位置

3D地球を読み込み中...

次回通過

高度履歴

Altitude vs Time

uPlot chart will show altitude changes over time

軌道要素

1 63092U 25037R 25304.43396088 .00004328 00000-0 37020-3 0 9994
2 63092 70.0008 320.2443 0003473 268.8534 91.2227 14.98339948 39247
Epoch: Oct 31, 2025 • Age: 33 hours

現在のステータス

高度 576.1 km
速度 7.57 km/s
衛星直下点 -11.96°S, 170.11°E
打ち上げ日 Feb 23, 2025
運用期間 0.6 years
タイプ internet

技術仕様

分類 Payload
質量 730.00 kg
乾燥質量 700.00 kg
総質量 730.00 kg
長さ 0.30 m
直径 4.10 m
スパン 29.00 m
形状 Box + pan
製造者 SPXS
バスタイプ Starlink V2M
フェーズステータス In Orbit
所有者/国 SPXS/US

大規模コンステレーション

Loading constellations...